sat.trackr.live / text

‹ back to catalog

STARLINK-11563 [DTC]

NORAD 63053 · 2025-035B

PAYLOAD ACTIVE UNKNOWN

§ Identity

Operator
Country
US
Launch date
2025-02-21
Launch site
AFETR
Launch vehicle
Mass (kg)
RCS (m²)

Purposes: comms

External: N2YO · Heavens-Above · Gunter

§ Orbital elements

Epoch: 2026-05-25T01:27:37.586016Z

Period
91.67 min
Inclination
42.9997°
Eccentricity
0.0002296
Mean motion
15.70888869 rev/d
Perigee alt
354.8 km
Apogee alt
357.9 km
Semi-major
6,734.5 km
B*
1.5801e-3
RAAN
274.8615°
Arg perigee
51.0927°
Mean anomaly
309.0145°
Rev number
7,312

§ Raw data

STARLINK-11563 [DTC]1 63053U 25035B   26145.06085169  .00207886  00000+0  15801-2 0  99922 63053  42.9997 274.8615 0002296  51.0927 309.0145 15.70888869 73120

JSON: /api/v1/satellites/63053 · /tle

For live sub-satellite position, see the globe view (requires WebGL).

§ Visibility from observer

Set your observer location to see the next 7 days of passes ≥ 10°. The values pass through the URL so the page stays shareable.

No JS? Fill the form by hand. The geolocation button needs JavaScript.